FW8678 Weather Reports


Display with metric or nautical units.
time (UTC)temp
F
wind
direction
speed
MPH
gust
MPH
rain 1hr
in
rain 24hr
in
rain mn
in
humidity
%
barometer
mb
20260831123704 84 159 5.0 5.0 0.00 0.00 0.00 62 1018.2
20260831120702 85 144 4.0 3.0 0.00 0.00 0.00 55 1018.2
20260831113702 85 138 3.0 0.0 0.00 0.00 0.00 52 1018.2
20260831110703 85 138 2.0 3.0 0.00 0.00 0.00 46 1018.2
20260831100702 83 167 2.0 3.0 0.00 0.00 0.00 44 1018.2
20260831093702 82 58 2.0 1.0 0.00 0.00 0.00 44 1018.2
20260831090702 80 138 1.0 2.0 0.00 0.00 0.00 47 1018.2
20260831083702 80 156 0.0 2.0 0.00 0.00 0.00 47 1018.2
20260831080702 77 138 0.0 2.0 0.00 0.00 0.00 64 1018.2
20260831070702 76 332 2.0 2.0 0.00 0.00 0.00 44 1018.2
20260831060702 72 138 2.0 2.0 0.00 0.00 0.00 46 1018.2
20260831053702 71 329 2.0 2.0 0.00 0.00 0.00 47 1018.2
20260831050702 71 345 2.0 2.0 0.00 0.00 0.00 49 1018.2
20260831043702 71 138 1.0 4.0 0.00 0.00 0.00 51 1018.2
20260831040702 71 325 2.0 4.0 0.00 0.00 0.00 52 1018.2
20260831033702 71 346 2.0 4.0 0.00 0.00 0.00 53 1018.2
20260831030703 71 346 2.0 4.0 0.00 0.00 0.00 52 1018.2
20260831023704 71 0 2.0 3.0 0.00 0.00 0.00 55 1018.2
20260831020703 72 138 2.0 4.0 0.00 0.00 0.00 58 1018.2
20260831013704 72 319 3.0 4.0 0.00 0.00 0.00 58 1018.2
20260831003705 72 355 3.0 3.0 0.00 0.00 0.00 61 1018.2
20260831000704 73 347 2.0 3.0 0.00 0.00 0.00 66 1018.2
20260830233703 74 355 1.0 1.0 0.00 0.00 0.00 68 1018.2
20260830230704 74 338 1.0 1.0 0.00 0.00 0.00 70 1018.2
20260830223704 74 138 1.0 1.0 0.00 0.00 0.00 74 1018.2
20260830220630 75 333 1.0 1.0 0.00 0.00 0.00 78 1018.2
20260830213626 76 138 1.0 1.0 0.00 0.00 0.00 79 1017.7
20260830210623 76 11 1.0 3.0 0.00 0.00 0.00 79 1017.5
20260830203623 77 17 1.0 3.0 0.00 0.00 0.00 78 1017.5
20260830200604 77 138 2.0 1.0 0.00 0.00 0.00 78 1018.2
20260830190603 80 135 2.0 4.0 0.00 0.00 0.00 67 1018.2
20260830183603 81 138 2.0 4.0 0.00 0.00 0.00 57 1018.2
20260830173602 85 156 1.0 2.0 0.00 0.00 0.00 41 1018.2
20260830170602 85 138 2.0 2.0 0.00 0.00 0.00 42 1018.2
20260830160602 85 151 3.0 7.0 0.00 0.00 0.00 46 1018.2
20260830153602 85 198 3.0 7.0 0.00 0.00 0.00 48 1018.2
20260830150603 85 131 3.0 6.0 0.00 0.00 0.00 49 1018.2
20260830143602 85 127 3.0 3.0 0.00 0.00 0.00 37 1018.2
20260830133601 85 127 3.0 4.0 0.00 0.00 0.00 40 1018.2
20260830130602 87 167 3.0 4.0 0.00 0.00 0.00 34 1018.2